Weather in Boikivske

Ukraine / Donetsk Region     47°24′39″N   38°00′52″E
temp.,
°C
wind,
m/s
gust,
m/s
humid.,
%
clouds,
%
prec.,
mm/h
press.,
hPa
HPBL,
m
16 october, sat
sat1600:00+10ne3954100 0.0 1022217
03:00+8ene495922 0.0 1020204
06:00+8ne4106570 0.0 1020214
09:00+11e6105870 0.0 1019364
12:00+17e6742100 0.0 1017767
15:00+18e5534100 0.0 10161042
18:00+15ene3442100 0.0 101545
21:00+13ne3545100 0.0 101691
17 october, sun
sun1700:00+12ne3450100 0.0 101547
03:00+11nne3551100 0.0 101580
06:00+10nne3653100 0.0 101596
09:00+13nne5748100 0.0 1015286
12:00+17ne4535100 0.0 1015661
15:00+18nne3431100 0.0 10141132
18:00+14n374399 0.0 1015118
21:00+12nne345256 0.0 101555
18 october, mon
mon1800:00+11n335854 0.0 101633
03:00+13n356093 0.0 1016118
06:00+12n366394 0.0 1016141
09:00+13n345582 0.0 1017281
12:00+13nnw345688 0.0 1017401
15:00+16nw444773 0.0 10161138
18:00+12nw3553100 0.0 101772
21:00+10nw49535 0.0 1018192
19 october, tue
tue1900:00+8nw376088 0.0 1018129
03:00+7wnw3762100 0.0 1018143
06:00+8wnw3860100 0.0 1018305
09:00+10wnw3658100 0.0 1018556
12:00+11w4452100 0.0 10181312
15:00+11w3354100 0.2 10171399
18:00+8nw4585100 1.9 1018442
21:00+8n5876100 3.7 1019983
20 october, wed
wed2000:00+6nnw510590 0.1 1020302
03:00+4nw510610 0.1 1022252
06:00+3nw510745 0.0 1024272
09:00+4nnw57695 0.0 1027633
12:00+8nnw564926 0.0 10271369
15:00+9nw45405 0.0 10271460
18:00+6nw234814 0.0 102938
21:00+5nw2252100 0.0 102912